User: anonymous   Login
Location: Fiddletown
(38.4917°N, 120.6633°W)
Time: 15:21:44
(UTC-07:00)
Language:

Envisat - Orbit

View from above orbital plane
View from above orbital plane
View from above satellite
View from above satellite

Ground track
Ground track

The orbit data is extracted from the following two-line orbital elements,

1 27386U 02009A   16206.42287138  .00000013  00000-0  18177-4 0  9999
2 27386  98.2812 258.5048 0001191  84.8740 275.2583 14.37871688753979
Epoch (UTC): 24 July 2016 10:08:56
Eccentricity: 0.0001191
inclination: 98.2812°
perigee height: 764 km
apogee height: 766 km
right ascension of ascending node: 258.5048°
argument of perigee: 84.8740°
revolutions per day: 14.37871688
mean anomaly at epoch: 275.2583°
orbit number at epoch: 75397

The dashed part of the orbit path shows where the satellite is in the earth's shadow,  

DLR